Location: Unspecified
(0.0000°N, 0.0000°E)
Time: 06:29:19
(UTC+00:00)

Vanguard 3 - Pass Details

Date: 19 November 2019
Orbit: 508 x 3263 km, 33.3° (Epoch: 11 December)

Event Time Altitude Azimuth Distance (km) Brightness Sun altitude
Rises 14:26:20 0° 284° (WNW) 6,888 12.3 46.0°
Reaches altitude 10° 14:32:53 10° 298° (WNW) 6,102 12.1 44.6°
Maximum altitude 14:46:10 21° 341° (NNW) 5,214 11.4 41.6°
Drops below altitude 10° 14:58:37 10° 24° (NNE) 5,636 11.2 38.8°
Sets 15:04:23 0° 40° (NE) 6,247 11.2 37.5°
